Showing default

COSMOS 2130, 21105

Orbit data source: Space-Track

COSMOS 2130, 21105 is a payload satellite owned by UNKS RF (CIS) in LEO that was launched on Tue, 12 Feb 1991 UTC via a KOSMOS 11K65M launch vehicle from the Plesetsk Missile And Space Complex (PKMTR). Payload-class satellites include a variety of spacecraft equipped with specific instruments for various scientific and technological missions. These include communications satellites like Starlink; space stations such as the ISS; scientific satellites like the Hubble; Earth observation satellites from companies like Planet Labs, Umbra, and HawkEye 360; GPS; miniature CubeSats for education and research; and military/defense satellites.

Loading next visibility...
Identifier
21105, 1991-009F
Orbit
LEO
Country
Flag of CISCIS
Related business
Manufacturer
NPO PM
Mission
Defense Communications
Bus & Motor
STRELA-1 11F625, Unknown motor
Mass
60 kg wet, 60 kg dry
Launch date (UTC)
1991-02-12 (35 years ago)
Launch vehicle
KOSMOS 11K65M
Launch site
Plesetsk Missile And Space Complex (PKMTR)
Object type
Payload
Rocket body
Debris
Shape & HBR
Sphere, 0.4 m
Radar Cross Section
0.588 m², Medium (>0.1 m² and < 1m²)

Expand to show TLE details & history
Last TLE update: 2 days ago

TLE from 2 days ago
0 COSMOS 2130
1 21105U 91009F   26171.25517293 -.00000000  00000-0  97070-4 0  9997
2 21105  74.0305  84.2830 0044088 238.1345 247.5939 12.57181325622346
Epoch: 2026-06-20T06:07Z
TLE epoch observation values (Epoch: 2026-06-20T06:07:26.941Z)
Latitude
51.82013°
Longitude
-117.28281°
Altitude
1,455.829 km
Speed
7.133 km/s
True Right ascension
16h 12m 12s
True Declination
51° 40' 04"
Sunlit
Object was in daylight at epoch
Visualization orbit readout
Latitude
Unknown
Longitude
Unknown
Altitude
Unknown
Speed
Unknown
Apparent Right ascension
Unknown
Apparent Declination
Unknown
Sunlit
N/A
Visualization observer readout
Local Sidereal Time
02:00:07
Azimuth
Unknown
Elevation
Unknown
Doppler factor
Unknown
Orbital elements
Apogee altitude
1,466.862 km
Perigee altitude
1,397.992 km
Semi-major axis
7,810.564 km
Eccentricity
0.00441
Inclination
74.0305°
RAAN
84.283°
Arg. of periapsis
238.1345°
True anomaly
247.12781°
Mean anomaly
247.5939°
Eccentric anomaly
247.36076°
Mean motion
3.14427 °/min
Orbital period
114.49 mins
BSTAR
0.00009707
Loading maneuver chart data...
Computing Atmospheric mass density...
Loading historical data...
Loading historical data...
Loading historical data...
Loading historical data...
Loading historical data...
Loading historical data...
Loading historical data...

Documentation

Showing up to 5 results
|